SouthEast Lincoln: Weather Underground Data


Davis Vantage Pro Historical Data
 
Daily Summary for July 15, 2018 Units:  English    Metric   Both
« Previous Day
Next Day »
Daily Weekly Monthly Yearly Custom
  Current: High: Low: Average:
Temperature: 82.7 °F 95.1 °F 66.8 °F 81.2 °F
Dew Point: 69.8 °F 72.7 °F 64.9 °F 69 °F
Humidity: 65% 96% 45% 69%
Wind Speed: 0.0mph 6.0mph 0.0mph 0.8mph
Wind Gust: 0.0mph 9.0mph - -
Wind:Calm - - ESE
Pressure: 29.95 in 29.98 in 29.91 in -
Precipitation: 0.00 in      
Historical Graphs
 
 
Tabular Data for July 15, 2018
Time Temperature Dew Point Pressure Wind Wind Speed Wind Gust Humidity Rainfall Rate (Hourly) solar
00:03 73.1 °F 66.6 °F 29.97 in Calm     80% 0.00 in 0.00 W/m2
00:08 72.9 °F 66.4 °F 29.97 in Calm     80% 0.00 in 0.00 W/m2
00:13 72.7 °F 66.5 °F 29.97 in Calm     81% 0.00 in 0.00 W/m2
00:18 72.5 °F 66.3 °F 29.97 in Calm     81% 0.00 in 0.00 W/m2
00:23 72.4 °F 66.6 °F 29.97 in Calm     82% 0.00 in 0.00 W/m2
00:28 72.2 °F 66.4 °F 29.97 in Calm     82% 0.00 in 0.00 W/m2
00:33 72.0 °F 66.2 °F 29.97 in Calm     82% 0.00 in 0.00 W/m2
00:38 71.9 °F 66.5 °F 29.97 in Calm     83% 0.00 in 0.00 W/m2
00:43 71.7 °F 66.6 °F 29.97 in Calm     84% 0.00 in 0.00 W/m2
00:48 71.6 °F 66.5 °F 29.97 in Calm     84% 0.00 in 0.00 W/m2
00:53 71.5 °F 66.4 °F 29.97 in Calm     84% 0.00 in 0.00 W/m2
00:58 71.3 °F 66.2 °F 29.97 in Calm     84% 0.00 in 0.00 W/m2
01:03 71.2 °F 66.5 °F 29.97 in Calm     85% 0.00 in 0.00 W/m2
01:08 71.1 °F 66.4 °F 29.97 in Calm     85% 0.00 in 0.00 W/m2
01:13 70.9 °F 66.2 °F 29.97 in Calm     85% 0.00 in 0.00 W/m2
01:18 70.8 °F 66.4 °F 29.97 in Calm     86% 0.00 in 0.00 W/m2
01:23 70.7 °F 66.3 °F 29.96 in Calm     86% 0.00 in 0.00 W/m2
01:28 70.6 °F 66.2 °F 29.96 in Calm     86% 0.00 in 0.00 W/m2
01:33 70.4 °F 66.3 °F 29.96 in Calm     87% 0.00 in 0.00 W/m2
01:38 70.3 °F 66.2 °F 29.96 in Calm     87% 0.00 in 0.00 W/m2
01:43 70.2 °F 66.2 °F 29.96 in Calm     87% 0.00 in 0.00 W/m2
01:48 70.1 °F 66.1 °F 29.95 in Calm     87% 0.00 in 0.00 W/m2
01:53 70.0 °F 66.3 °F 29.95 in Calm     88% 0.00 in 0.00 W/m2
01:58 69.9 °F 66.2 °F 29.95 in Calm     88% 0.00 in 0.00 W/m2
02:03 69.8 °F 66.1 °F 29.95 in Calm     88% 0.00 in 0.00 W/m2
02:08 69.7 °F 66.3 °F 29.95 in Calm     89% 0.00 in 0.00 W/m2
02:13 69.5 °F 66.1 °F 29.95 in Calm     89% 0.00 in 0.00 W/m2
02:18 69.5 °F 66.1 °F 29.95 in Calm     89% 0.00 in 0.00 W/m2
02:23 69.4 °F 66.0 °F 29.95 in Calm     89% 0.00 in 0.00 W/m2
02:28 69.3 °F 65.9 °F 29.95 in Calm     89% 0.00 in 0.00 W/m2
02:33 69.2 °F 66.2 °F 29.95 in Calm     90% 0.00 in 0.00 W/m2
02:38 69.1 °F 66.0 °F 29.95 in Calm     90% 0.00 in 0.00 W/m2
02:43 69.0 °F 66.3 °F 29.95 in Calm     91% 0.00 in 0.00 W/m2
02:48 69.0 °F 66.3 °F 29.95 in Calm   2.0 mph 91% 0.00 in 0.00 W/m2
02:53 69.0 °F 66.3 °F 29.95 in Calm     91% 0.00 in 0.00 W/m2
02:58 68.9 °F 66.2 °F 29.96 in Calm     91% 0.00 in 0.00 W/m2
03:03 68.9 °F 66.2 °F 29.96 in Calm     91% 0.00 in 0.00 W/m2
03:08 68.8 °F 66.1 °F 29.96 in Calm     91% 0.00 in 0.00 W/m2
03:13 68.8 °F 66.1 °F 29.96 in Calm     91% 0.00 in 0.00 W/m2
03:18 68.7 °F 66.0 °F 29.96 in Calm     91% 0.00 in 0.00 W/m2
03:23 68.6 °F 66.2 °F 29.96 in Calm     92% 0.00 in 0.00 W/m2
03:28 68.5 °F 66.1 °F 29.96 in Calm     92% 0.00 in 0.00 W/m2
03:33 68.5 °F 66.1 °F 29.96 in Calm     92% 0.00 in 0.00 W/m2
03:38 68.4 °F 66.0 °F 29.96 in Calm     92% 0.00 in 0.00 W/m2
03:43 68.3 °F 65.9 °F 29.96 in Calm     92% 0.00 in 0.00 W/m2
03:48 68.2 °F 65.8 °F 29.96 in Calm     92% 0.00 in 0.00 W/m2
03:53 68.1 °F 65.7 °F 29.96 in Calm     92% 0.00 in 0.00 W/m2
03:58 68.1 °F 65.7 °F 29.96 in Calm     92% 0.00 in 0.00 W/m2
04:03 67.9 °F 65.5 °F 29.96 in Calm     92% 0.00 in 0.00 W/m2
04:08 67.9 °F 65.5 °F 29.96 in Calm     92% 0.00 in 0.00 W/m2
04:13 67.8 °F 65.4 °F 29.96 in Calm     92% 0.00 in 0.00 W/m2
04:18 67.7 °F 65.3 °F 29.96 in Calm     92% 0.00 in 0.00 W/m2
04:23 67.6 °F 65.2 °F 29.95 in Calm     92% 0.00 in 0.00 W/m2
04:28 67.6 °F 65.5 °F 29.95 in Calm     93% 0.00 in 0.00 W/m2
04:33 67.6 °F 65.5 °F 29.96 in Calm     93% 0.00 in 0.00 W/m2
04:38 67.5 °F 65.4 °F 29.96 in Calm     93% 0.00 in 0.00 W/m2
04:43 67.5 °F 65.4 °F 29.96 in Calm     93% 0.00 in 0.00 W/m2
04:48 67.4 °F 65.3 °F 29.96 in Calm     93% 0.00 in 0.00 W/m2
04:53 67.3 °F 65.2 °F 29.96 in Calm     93% 0.00 in 0.00 W/m2
04:58 67.2 °F 65.1 °F 29.96 in Calm     93% 0.00 in 0.00 W/m2
05:03 67.2 °F 65.1 °F 29.96 in Calm     93% 0.00 in 0.00 W/m2
05:08 67.2 °F 65.1 °F 29.96 in Calm     93% 0.00 in 0.00 W/m2
05:13 67.2 °F 65.1 °F 29.96 in Calm     93% 0.00 in 0.00 W/m2
05:18 67.2 °F 65.1 °F 29.96 in Calm     93% 0.00 in 0.00 W/m2
05:23 67.1 °F 65.0 °F 29.96 in Calm     93% 0.00 in 0.00 W/m2
05:28 67.1 °F 65.0 °F 29.96 in Calm     93% 0.00 in 0.00 W/m2
05:33 67.1 °F 65.0 °F 29.96 in Calm     93% 0.00 in 0.00 W/m2
05:38 67.0 °F 64.9 °F 29.96 in Calm     93% 0.00 in 0.00 W/m2
05:43 67.0 °F 65.2 °F 29.96 in Calm     94% 0.00 in 0.00 W/m2
05:48 67.0 °F 65.2 °F 29.96 in Calm     94% 0.00 in 0.00 W/m2
05:53 67.0 °F 65.2 °F 29.96 in Calm     94% 0.00 in 0.00 W/m2
05:58 66.9 °F 65.1 °F 29.96 in Calm     94% 0.00 in 0.00 W/m2
06:03 66.8 °F 65.0 °F 29.96 in Calm     94% 0.00 in 0.00 W/m2
06:08 66.8 °F 65.0 °F 29.97 in Calm     94% 0.00 in 9.00 W/m2
06:13 66.9 °F 65.1 °F 29.97 in Calm     94% 0.00 in 12.00 W/m2
06:18 66.9 °F 65.1 °F 29.97 in Calm     94% 0.00 in 16.00 W/m2
06:23 67.0 °F 65.2 °F 29.97 in Calm     94% 0.00 in 16.00 W/m2
06:28 67.1 °F 65.3 °F 29.96 in Calm     94% 0.00 in 19.00 W/m2
06:33 67.2 °F 65.4 °F 29.97 in Calm     94% 0.00 in 23.00 W/m2
06:38 67.3 °F 65.5 °F 29.97 in Calm     94% 0.00 in 40.00 W/m2
06:43 67.4 °F 65.9 °F 29.96 in Calm     95% 0.00 in 69.00 W/m2
06:48 67.7 °F 66.2 °F 29.96 in Calm     95% 0.00 in 77.00 W/m2
06:53 68.2 °F 66.7 °F 29.97 in Calm     95% 0.00 in 86.00 W/m2
06:58 68.6 °F 67.1 °F 29.97 in Calm     95% 0.00 in 86.00 W/m2
07:03 69.5 °F 68.3 °F 29.97 in Calm     96% 0.00 in 95.00 W/m2
07:08 70.1 °F 68.9 °F 29.97 in Calm     96% 0.00 in 91.00 W/m2
07:13 70.4 °F 69.2 °F 29.97 in Calm     96% 0.00 in 104.00 W/m2
07:18 70.7 °F 69.2 °F 29.97 in Calm     95% 0.00 in 33.00 W/m2
07:23 70.8 °F 69.3 °F 29.97 in Calm     95% 0.00 in 39.00 W/m2
07:28 70.9 °F 69.4 °F 29.97 in Calm     95% 0.00 in 53.00 W/m2
07:33 71.0 °F 69.5 °F 29.97 in Calm     95% 0.00 in 93.00 W/m2
07:38 71.2 °F 69.7 °F 29.97 in Calm     95% 0.00 in 46.00 W/m2
07:43 71.5 °F 70.0 °F 29.97 in Calm     95% 0.00 in 162.00 W/m2
07:48 71.7 °F 70.2 °F 29.98 in Calm     95% 0.00 in 199.00 W/m2
07:53 72.0 °F 70.5 °F 29.98 in Calm     95% 0.00 in 213.00 W/m2
07:58 72.5 °F 71.0 °F 29.98 in Calm     95% 0.00 in 234.00 W/m2
08:03 72.9 °F 71.1 °F 29.98 in Calm     94% 0.00 in 250.00 W/m2
08:08 73.6 °F 71.8 °F 29.98 in Calm     94% 0.00 in 260.00 W/m2
08:13 74.2 °F 71.7 °F 29.98 in East 1.0 mph 4.0 mph 92% 0.00 in 100.00 W/m2
08:18 74.6 °F 71.5 °F 29.98 in Calm   1.0 mph 90% 0.00 in 397.00 W/m2
08:23 75.4 °F 71.6 °F 29.98 in Calm     88% 0.00 in 225.00 W/m2
08:28 76.0 °F 71.9 °F 29.98 in Calm     87% 0.00 in 283.00 W/m2
08:33 76.8 °F 71.2 °F 29.98 in Calm     83% 0.00 in 197.00 W/m2
08:38 77.5 °F 71.9 °F 29.98 in Calm   1.0 mph 83% 0.00 in 190.00 W/m2
08:43 78.1 °F 71.8 °F 29.98 in Calm     81% 0.00 in 116.00 W/m2
08:48 78.4 °F 71.7 °F 29.98 in Calm     80% 0.00 in 151.00 W/m2
08:53 79.1 °F 72.4 °F 29.98 in Calm     80% 0.00 in 420.00 W/m2
08:58 80.1 °F 71.9 °F 29.98 in Calm     76% 0.00 in 397.00 W/m2
09:03 81.0 °F 72.7 °F 29.98 in Calm     76% 0.00 in 408.00 W/m2
09:08 81.8 °F 72.7 °F 29.98 in Calm   1.0 mph 74% 0.00 in 431.00 W/m2
09:13 82.6 °F 72.2 °F 29.98 in Calm     71% 0.00 in 445.00 W/m2
09:18 83.2 °F 72.4 °F 29.98 in East 2.0 mph 4.0 mph 70% 0.00 in 454.00 W/m2
09:23 83.8 °F 72.1 °F 29.98 in East 2.0 mph 2.0 mph 68% 0.00 in 462.00 W/m2
09:28 84.2 °F 72.5 °F 29.98 in Calm   2.0 mph 68% 0.00 in 480.00 W/m2
09:33 84.5 °F 71.9 °F 29.98 in Calm     66% 0.00 in 497.00 W/m2
09:38 84.8 °F 71.7 °F 29.98 in East 2.0 mph 2.0 mph 65% 0.00 in 504.00 W/m2
09:43 85.0 °F 71.5 °F 29.98 in Calm   1.0 mph 64% 0.00 in 543.00 W/m2
09:48 85.4 °F 71.4 °F 29.98 in East 1.0 mph 2.0 mph 63% 0.00 in 239.00 W/m2
09:53 85.4 °F 71.4 °F 29.98 in East 1.0 mph 2.0 mph 63% 0.00 in 563.00 W/m2
09:58 85.7 °F 71.2 °F 29.98 in Calm   1.0 mph 62% 0.00 in 626.00 W/m2
10:03 86.2 °F 71.2 °F 29.98 in Calm   1.0 mph 61% 0.00 in 188.00 W/m2
10:08 86.7 °F 71.2 °F 29.98 in East 1.0 mph 2.0 mph 60% 0.00 in 638.00 W/m2
10:13 87.3 °F 71.7 °F 29.98 in Calm   2.0 mph 60% 0.00 in 628.00 W/m2
10:18 87.5 °F 71.4 °F 29.98 in East 2.0 mph 4.0 mph 59% 0.00 in 636.00 W/m2
10:23 87.7 °F 71.1 °F 29.98 in ESE 4.0 mph 4.0 mph 58% 0.00 in 659.00 W/m2
10:28 87.9 °F 71.8 °F 29.98 in ESE 1.0 mph 4.0 mph 59% 0.00 in 643.00 W/m2
10:33 88.1 °F 71.5 °F 29.97 in ESE 2.0 mph 4.0 mph 58% 0.00 in 640.00 W/m2
10:38 88.0 °F 71.4 °F 29.97 in Calm   2.0 mph 58% 0.00 in 652.00 W/m2
10:43 88.5 °F 71.3 °F 29.97 in SW 3.0 mph 6.0 mph 57% 0.00 in 663.00 W/m2
10:48 88.6 °F 70.9 °F 29.97 in SW 2.0 mph 2.0 mph 56% 0.00 in 666.00 W/m2
10:53 89.0 °F 70.8 °F 29.97 in SW 2.0 mph 3.0 mph 55% 0.00 in 680.00 W/m2
10:58 89.3 °F 71.6 °F 29.97 in SW 1.0 mph 2.0 mph 56% 0.00 in 691.00 W/m2
11:03 89.9 °F 71.0 °F 29.97 in SSW 1.0 mph 2.0 mph 54% 0.00 in 707.00 W/m2
11:08 90.2 °F 70.8 °F 29.97 in SSW 2.0 mph 4.0 mph 53% 0.00 in 721.00 W/m2
11:13 90.0 °F 71.1 °F 29.97 in SSE 2.0 mph 2.0 mph 54% 0.00 in 788.00 W/m2
11:18 90.6 °F 71.1 °F 29.97 in South 1.0 mph 3.0 mph 53% 0.00 in 745.00 W/m2
11:23 90.6 °F 71.1 °F 29.97 in Calm     53% 0.00 in 218.00 W/m2
11:28 90.4 °F 71.0 °F 29.97 in Calm   1.0 mph 53% 0.00 in 302.00 W/m2
11:33 90.2 °F 70.8 °F 29.97 in Calm     53% 0.00 in 366.00 W/m2
11:38 90.4 °F 71.0 °F 29.97 in SSW 2.0 mph 3.0 mph 53% 0.00 in 221.00 W/m2
11:43 89.8 °F 71.0 °F 29.98 in SSW 1.0 mph 1.0 mph 54% 0.00 in 285.00 W/m2
11:48 89.8 °F 71.0 °F 29.98 in SSW 2.0 mph 2.0 mph 54% 0.00 in 311.00 W/m2
11:53 90.0 °F 71.1 °F 29.98 in Calm   4.0 mph 54% 0.00 in 972.00 W/m2
11:58 90.3 °F 71.4 °F 29.98 in SSE 2.0 mph 2.0 mph 54% 0.00 in 236.00 W/m2
12:03 90.2 °F 71.3 °F 29.98 in Calm   1.0 mph 54% 0.00 in 269.00 W/m2
12:08 90.4 °F 71.5 °F 29.98 in Calm   1.0 mph 54% 0.00 in 914.00 W/m2
12:13 91.4 °F 72.4 °F 29.98 in ENE 3.0 mph 5.0 mph 54% 0.00 in 904.00 W/m2
12:18 91.2 °F 70.0 °F 29.97 in ESE 1.0 mph 4.0 mph 50% 0.00 in 912.00 W/m2
12:23 91.5 °F 70.2 °F 29.97 in East 1.0 mph 5.0 mph 50% 0.00 in 882.00 W/m2
12:28 91.8 °F 71.1 °F 29.97 in Calm   2.0 mph 51% 0.00 in 199.00 W/m2
12:33 91.3 °F 71.8 °F 29.97 in ENE 4.0 mph 4.0 mph 53% 0.00 in 239.00 W/m2
12:38 90.8 °F 71.9 °F 29.97 in ENE 1.0 mph 7.0 mph 54% 0.00 in 874.00 W/m2
12:43 90.6 °F 72.2 °F 29.97 in ESE 2.0 mph 4.0 mph 55% 0.00 in 870.00 W/m2
12:48 90.7 °F 71.8 °F 29.97 in East 2.0 mph 5.0 mph 54% 0.00 in 882.00 W/m2
12:53 90.7 °F 70.7 °F 29.97 in ESE 2.0 mph 5.0 mph 52% 0.00 in 926.00 W/m2
12:58 91.0 °F 71.0 °F 29.97 in Calm   4.0 mph 52% 0.00 in 983.00 W/m2
13:03 91.1 °F 70.5 °F 29.97 in Calm   2.0 mph 51% 0.00 in 190.00 W/m2
13:08 90.1 °F 71.2 °F 29.97 in NE 6.0 mph 9.0 mph 54% 0.00 in 216.00 W/m2
13:13 89.3 °F 71.0 °F 29.97 in ENE 1.0 mph 3.0 mph 55% 0.00 in 216.00 W/m2
13:18 88.9 °F 71.2 °F 29.96 in ENE 1.0 mph 3.0 mph 56% 0.00 in 965.00 W/m2
13:23 89.7 °F 70.3 °F 29.96 in ESE 1.0 mph 4.0 mph 53% 0.00 in 1011.00 W/m2
13:28 90.9 °F 72.5 °F 29.96 in Calm   1.0 mph 55% 0.00 in 998.00 W/m2
13:33 91.9 °F 70.6 °F 29.96 in ENE 4.0 mph 7.0 mph 50% 0.00 in 237.00 W/m2
13:38 91.4 °F 69.6 °F 29.96 in East 3.0 mph 5.0 mph 49% 0.00 in 302.00 W/m2
13:43 90.6 °F 70.0 °F 29.96 in ENE 3.0 mph 3.0 mph 51% 0.00 in 269.00 W/m2
13:48 90.8 °F 70.2 °F 29.96 in ENE 1.0 mph 3.0 mph 51% 0.00 in 998.00 W/m2
13:53 91.8 °F 69.9 °F 29.96 in ENE 2.0 mph 3.0 mph 49% 0.00 in 986.00 W/m2
13:58 93.4 °F 70.8 °F 29.95 in Calm   1.0 mph 48% 0.00 in 1046.00 W/m2
14:03 94.9 °F 72.2 °F 29.96 in NE 3.0 mph 3.0 mph 48% 0.00 in 1021.00 W/m2
14:08 95.1 °F 70.4 °F 29.95 in East 5.0 mph 8.0 mph 45% 0.00 in 209.00 W/m2
14:13 93.1 °F 70.5 °F 29.95 in Calm     48% 0.00 in 218.00 W/m2
14:18 92.6 °F 70.7 °F 29.95 in Calm   1.0 mph 49% 0.00 in 963.00 W/m2
14:23 91.7 °F 69.2 °F 29.95 in East 5.0 mph 5.0 mph 48% 0.00 in 861.00 W/m2
14:28 91.3 °F 70.7 °F 29.95 in Calm     51% 0.00 in 902.00 W/m2
14:33 92.2 °F 70.9 °F 29.95 in Calm     50% 0.00 in 914.00 W/m2
14:38 93.2 °F 70.6 °F 29.94 in NE 3.0 mph 3.0 mph 48% 0.00 in 911.00 W/m2
14:43 92.7 °F 70.8 °F 29.95 in East 4.0 mph 5.0 mph 49% 0.00 in 933.00 W/m2
14:48 91.3 °F 70.1 °F 29.95 in Calm     50% 0.00 in 167.00 W/m2
14:53 90.9 °F 71.4 °F 29.94 in Calm     53% 0.00 in 877.00 W/m2
14:58 90.3 °F 70.3 °F 29.94 in Calm   6.0 mph 52% 0.00 in 838.00 W/m2
15:03 90.2 °F 70.8 °F 29.94 in SE 1.0 mph 5.0 mph 53% 0.00 in 846.00 W/m2
15:08 90.7 °F 71.2 °F 29.94 in ENE 2.0 mph 3.0 mph 53% 0.00 in 824.00 W/m2
15:13 91.1 °F 69.9 °F 29.93 in ENE 6.0 mph 7.0 mph 50% 0.00 in 798.00 W/m2
15:18 90.8 °F 69.6 °F 29.93 in ENE 1.0 mph 3.0 mph 50% 0.00 in 779.00 W/m2
15:23 91.4 °F 70.7 °F 29.93 in East 2.0 mph 4.0 mph 51% 0.00 in 788.00 W/m2
15:28 91.8 °F 71.1 °F 29.93 in Calm   1.0 mph 51% 0.00 in 814.00 W/m2
15:33 91.3 °F 71.2 °F 29.93 in ENE 2.0 mph 5.0 mph 52% 0.00 in 875.00 W/m2
15:38 91.1 °F 71.6 °F 29.93 in ENE 5.0 mph 8.0 mph 53% 0.00 in 874.00 W/m2
15:43 90.8 °F 71.3 °F 29.93 in SE 2.0 mph 7.0 mph 53% 0.00 in 383.00 W/m2
15:48 90.4 °F 70.4 °F 29.93 in Calm     52% 0.00 in 221.00 W/m2
15:53 90.5 °F 71.0 °F 29.93 in ESE 2.0 mph 4.0 mph 53% 0.00 in 274.00 W/m2
15:58 90.3 °F 70.3 °F 29.94 in East 5.0 mph 6.0 mph 52% 0.00 in 824.00 W/m2
16:03 90.0 °F 71.1 °F 29.93 in Calm   2.0 mph 54% 0.00 in 262.00 W/m2
16:08 90.1 °F 71.2 °F 29.93 in NE 3.0 mph 4.0 mph 54% 0.00 in 253.00 W/m2
16:13 90.1 °F 70.1 °F 29.93 in ENE 5.0 mph 7.0 mph 52% 0.00 in 229.00 W/m2
16:18 89.6 °F 70.8 °F 29.93 in East 1.0 mph 3.0 mph 54% 0.00 in 176.00 W/m2
16:23 89.3 °F 69.9 °F 29.93 in East 3.0 mph 5.0 mph 53% 0.00 in 747.00 W/m2
16:28 89.4 °F 70.0 °F 29.93 in ENE 5.0 mph 8.0 mph 53% 0.00 in 160.00 W/m2
16:33 89.0 °F 70.2 °F 29.93 in Calm     54% 0.00 in 153.00 W/m2
16:38 89.2 °F 70.9 °F 29.93 in NE 2.0 mph 6.0 mph 55% 0.00 in 707.00 W/m2
16:43 89.2 °F 70.4 °F 29.93 in Calm     54% 0.00 in 130.00 W/m2
16:48 89.5 °F 70.7 °F 29.93 in ESE 5.0 mph 5.0 mph 54% 0.00 in 592.00 W/m2
16:53 89.9 °F 70.5 °F 29.93 in ESE 4.0 mph 5.0 mph 53% 0.00 in 592.00 W/m2
16:58 90.4 °F 69.8 °F 29.93 in South 4.0 mph 4.0 mph 51% 0.00 in 575.00 W/m2
17:03 91.0 °F 69.8 °F 29.93 in SE 1.0 mph 2.0 mph 50% 0.00 in 564.00 W/m2
17:08 91.6 °F 70.3 °F 29.93 in Calm   2.0 mph 50% 0.00 in 557.00 W/m2
17:13 91.8 °F 70.5 °F 29.93 in SE 5.0 mph 8.0 mph 50% 0.00 in 554.00 W/m2
17:18 91.7 °F 71.0 °F 29.93 in ESE 4.0 mph 5.0 mph 51% 0.00 in 548.00 W/m2
17:23 91.4 °F 70.2 °F 29.93 in East 4.0 mph 4.0 mph 50% 0.00 in 149.00 W/m2
17:28 90.7 °F 69.5 °F 29.93 in East 5.0 mph 5.0 mph 50% 0.00 in 478.00 W/m2
17:33 90.8 °F 70.2 °F 29.93 in East 1.0 mph 4.0 mph 51% 0.00 in 454.00 W/m2
17:38 91.3 °F 70.1 °F 29.92 in East 5.0 mph 7.0 mph 50% 0.00 in 455.00 W/m2
17:43 91.0 °F 70.4 °F 29.92 in Calm     51% 0.00 in 93.00 W/m2
17:48 91.1 °F 69.9 °F 29.92 in Calm     50% 0.00 in 431.00 W/m2
17:53 91.6 °F 69.2 °F 29.92 in Calm     48% 0.00 in 401.00 W/m2
17:58 92.1 °F 69.0 °F 29.92 in Calm   2.0 mph 47% 0.00 in 394.00 W/m2
18:03 92.7 °F 70.2 °F 29.92 in Calm     48% 0.00 in 357.00 W/m2
18:08 92.7 °F 68.9 °F 29.92 in ENE 2.0 mph 3.0 mph 46% 0.00 in 345.00 W/m2
18:13 92.3 °F 68.5 °F 29.92 in ENE 2.0 mph 2.0 mph 46% 0.00 in 320.00 W/m2
18:18 92.4 °F 69.3 °F 29.92 in ENE 1.0 mph 1.0 mph 47% 0.00 in 318.00 W/m2
18:23 92.5 °F 68.7 °F 29.92 in ENE 2.0 mph 3.0 mph 46% 0.00 in 327.00 W/m2
18:28 91.8 °F 69.3 °F 29.92 in East 1.0 mph 4.0 mph 48% 0.00 in 327.00 W/m2
18:33 91.6 °F 69.8 °F 29.92 in Calm   1.0 mph 49% 0.00 in 278.00 W/m2
18:38 91.5 °F 69.7 °F 29.92 in Calm   2.0 mph 49% 0.00 in 260.00 W/m2
18:43 91.3 °F 68.9 °F 29.91 in East 2.0 mph 3.0 mph 48% 0.00 in 246.00 W/m2
18:48 90.9 °F 69.1 °F 29.91 in Calm   3.0 mph 49% 0.00 in 207.00 W/m2
18:53 91.0 °F 69.8 °F 29.91 in Calm     50% 0.00 in 202.00 W/m2
18:58 91.0 °F 69.2 °F 29.92 in Calm     49% 0.00 in 200.00 W/m2
19:03 90.3 °F 68.6 °F 29.92 in Calm     49% 0.00 in 163.00 W/m2
19:08 90.1 °F 69.0 °F 29.92 in Calm     50% 0.00 in 137.00 W/m2
19:13 89.5 °F 69.0 °F 29.92 in Calm     51% 0.00 in 76.00 W/m2
19:18 89.1 °F 69.8 °F 29.92 in Calm     53% 0.00 in 70.00 W/m2
19:23 88.8 °F 69.5 °F 29.92 in Calm     53% 0.00 in 76.00 W/m2
19:28 88.6 °F 70.4 °F 29.92 in Calm     55% 0.00 in 76.00 W/m2
19:33 88.5 °F 68.6 °F 29.92 in Calm     52% 0.00 in 72.00 W/m2
19:38 88.1 °F 69.4 °F 29.92 in Calm     54% 0.00 in 67.00 W/m2
19:43 87.9 °F 68.7 °F 29.92 in Calm     53% 0.00 in 60.00 W/m2
19:48 87.7 °F 69.5 °F 29.92 in ENE 2.0 mph 2.0 mph 55% 0.00 in 54.00 W/m2
19:53 87.4 °F 68.7 °F 29.92 in ENE 1.0 mph 3.0 mph 54% 0.00 in 49.00 W/m2
19:58 87.1 °F 69.0 °F 29.92 in ENE 3.0 mph 7.0 mph 55% 0.00 in 42.00 W/m2
20:03 86.8 °F 69.2 °F 29.92 in ENE 3.0 mph 4.0 mph 56% 0.00 in 37.00 W/m2
20:08 86.7 °F 69.7 °F 29.92 in Calm     57% 0.00 in 33.00 W/m2
20:13 86.6 °F 70.1 °F 29.92 in Calm     58% 0.00 in 30.00 W/m2
20:18 86.4 °F 69.9 °F 29.92 in ENE 1.0 mph 4.0 mph 58% 0.00 in 26.00 W/m2
20:23 86.2 °F 69.7 °F 29.93 in Calm     58% 0.00 in 23.00 W/m2
20:28 86.2 °F 70.2 °F 29.93 in Calm     59% 0.00 in 19.00 W/m2
20:33 86.0 °F 70.5 °F 29.92 in Calm     60% 0.00 in 16.00 W/m2
20:38 85.8 °F 69.8 °F 29.92 in Calm     59% 0.00 in 12.00 W/m2
20:43 85.6 °F 70.1 °F 29.93 in Calm     60% 0.00 in 11.00 W/m2
20:48 85.4 °F 70.4 °F 29.93 in Calm     61% 0.00 in 7.00 W/m2
20:53 85.1 °F 70.2 °F 29.93 in Calm     61% 0.00 in 0.00 W/m2
20:58 84.8 °F 69.9 °F 29.93 in Calm     61% 0.00 in 0.00 W/m2
21:03 84.5 °F 69.6 °F 29.93 in Calm     61% 0.00 in 0.00 W/m2
21:08 84.4 °F 70.0 °F 29.93 in Calm     62% 0.00 in 0.00 W/m2
21:13 84.2 °F 69.8 °F 29.93 in Calm     62% 0.00 in 0.00 W/m2
21:18 83.9 °F 70.0 °F 29.94 in Calm     63% 0.00 in 0.00 W/m2
21:23 83.6 °F 69.7 °F 29.94 in Calm     63% 0.00 in 0.00 W/m2
21:28 83.2 °F 70.2 °F 29.94 in Calm     65% 0.00 in 0.00 W/m2
21:33 82.9 °F 69.9 °F 29.94 in Calm     65% 0.00 in 0.00 W/m2
21:38 82.7 °F 69.8 °F 29.95 in Calm     65% 0.00 in 0.00 W/m2
SouthEast Lincoln Weather
Compliments of Weather Underground - 2.75 mb